| time (UTC) | temp F | wind direction | speed MPH | gust MPH | rain 1hr in | rain 24hr in | rain mn in | humidity % | barometer mb |
| 20260504011553 | 68 | 360 | 2.0 | 8.0 | 0.00 | 0.00 | 0.00 | 65 | 1018.3 |
| 20260504010056 | 69 | 360 | 2.0 | 6.0 | 0.00 | 0.00 | 0.00 | 64 | 1018.1 |
| 20260504004552 | 70 | 360 | 3.0 | 11.0 | 0.00 | 0.00 | 0.00 | 62 | 1017.8 |
| 20260504003054 | 70 | 360 | 4.0 | 10.0 | 0.00 | 0.00 | 0.00 | 61 | 1017.8 |
| 20260504001608 | 72 | 360 | 4.0 | 11.0 | 0.00 | 0.00 | 0.00 | 59 | 1017.7 |
| 20260504000059 | 73 | 253 | 3.0 | 13.0 | 0.00 | 0.00 | 0.00 | 56 | 1017.7 |
| 20260503234603 | 76 | 326 | 2.0 | 9.0 | 0.00 | 0.00 | 0.00 | 44 | 1017.6 |
| 20260503233103 | 76 | 16 | 3.0 | 10.0 | 0.00 | 0.00 | 0.00 | 42 | 1017.7 |
| 20260503231559 | 77 | 351 | 2.0 | 9.0 | 0.00 | 0.00 | 0.00 | 41 | 1017.7 |
| 20260503230051 | 77 | 336 | 2.0 | 9.0 | 0.00 | 0.00 | 0.00 | 41 | 1017.7 |
| 20260503224555 | 78 | 360 | 3.0 | 9.0 | 0.00 | 0.00 | 0.00 | 40 | 1017.7 |
| 20260503223054 | 78 | 14 | 3.0 | 13.0 | 0.00 | 0.00 | 0.00 | 40 | 1017.6 |
| 20260503221554 | 78 | 360 | 2.0 | 10.0 | 0.00 | 0.00 | 0.00 | 39 | 1017.5 |
| 20260503220054 | 78 | 360 | 3.0 | 9.0 | 0.00 | 0.00 | 0.00 | 40 | 1017.6 |
| 20260503214602 | 78 | 360 | 3.0 | 13.0 | 0.00 | 0.00 | 0.00 | 40 | 1017.7 |
| 20260503213053 | 78 | 29 | 3.0 | 11.0 | 0.00 | 0.00 | 0.00 | 41 | 1017.9 |
| 20260503211621 | 79 | 32 | 2.0 | 9.0 | 0.00 | 0.00 | 0.00 | 39 | 1018.1 |
| 20260503210054 | 77 | 109 | 3.0 | 11.0 | 0.00 | 0.00 | 0.00 | 45 | 1018.4 |
| 20260503204558 | 78 | 67 | 8.0 | 16.0 | 0.00 | 0.00 | 0.00 | 48 | 1018.6 |
| 20260503203059 | 77 | 203 | 3.0 | 9.0 | 0.00 | 0.00 | 0.00 | 42 | 1018.8 |
| 20260503201611 | 76 | 148 | 7.0 | 15.0 | 0.00 | 0.00 | 0.00 | 46 | 1019.1 |
| 20260503200053 | 76 | 180 | 6.0 | 15.0 | 0.00 | 0.00 | 0.00 | 50 | 1019.2 |
| 20260503194554 | 76 | 165 | 6.0 | 12.0 | 0.00 | 0.00 | 0.00 | 45 | 1019.5 |
| 20260503193108 | 77 | 338 | 3.0 | 11.0 | 0.00 | 0.00 | 0.00 | 38 | 1019.9 |
| 20260503191558 | 77 | 119 | 4.0 | 9.0 | 0.00 | 0.00 | 0.00 | 37 | 1020.1 |
| 20260503190107 | 78 | 233 | 1.0 | 8.0 | 0.00 | 0.00 | 0.00 | 39 | 1020.3 |
| 20260503184556 | 77 | 337 | 3.0 | 11.0 | 0.00 | 0.00 | 0.00 | 40 | 1020.5 |
| 20260503183101 | 77 | 360 | 4.0 | 12.0 | 0.00 | 0.00 | 0.00 | 41 | 1020.7 |
| 20260503181552 | 76 | 360 | 4.0 | 11.0 | 0.00 | 0.00 | 0.00 | 38 | 1020.8 |
| 20260503180058 | 77 | 360 | 2.0 | 11.0 | 0.00 | 0.00 | 0.00 | 39 | 1020.9 |
| 20260503173112 | 75 | 337 | 4.0 | 9.0 | 0.00 | 0.00 | 0.00 | 41 | 1021.1 |
| 20260503171610 | 75 | 336 | 3.0 | 13.0 | 0.00 | 0.00 | 0.00 | 40 | 1021.1 |
| 20260503150106 | 72 | 18 | 3.0 | 8.0 | 0.00 | 0.00 | 0.00 | 55 | 1022.3 |
| 20260503140113 | 67 | 348 | 2.0 | 6.0 | 0.00 | 0.00 | 0.00 | 63 | 1021.9 |
| 20260503100104 | 49 | 0 | 0.0 | 1.0 | 0.00 | 0.08 | 0.00 | 100 | 1020.1 |
| 20260503081601 | 51 | 0 | 0.0 | 1.0 | 0.00 | 0.37 | 0.00 | 99 | 1019.7 |
| 20260503071606 | 52 | 0 | 0.0 | 0.0 | 0.00 | 0.58 | 0.00 | 95 | 1019.1 |
| 20260503060113 | 53 | 0 | 0.0 | 1.0 | 0.00 | 0.74 | 0.00 | 93 | 1019.3 |
| 20260503054626 | 54 | 0 | 0.0 | 2.0 | 0.00 | 0.87 | 0.00 | 91 | 1019.2 |
| 20260503053107 | 55 | 0 | 0.0 | 2.0 | 0.00 | 0.87 | 0.00 | 91 | 1019.1 |
| 20260503051558 | 55 | 0 | 0.0 | 0.0 | 0.00 | 0.87 | 0.00 | 90 | 1019.1 |
| 20260503050058 | 55 | 0 | 0.0 | 0.0 | 0.00 | 0.87 | 0.00 | 90 | 1019.1 |
| 20260503044607 | 56 | 0 | 0.0 | 1.0 | 0.00 | 0.87 | 0.87 | 90 | 1018.8 |
| 20260503043101 | 56 | 0 | 0.0 | 2.0 | 0.00 | 0.87 | 0.87 | 90 | 1018.8 |
| 20260503041614 | 56 | 0 | 0.0 | 2.0 | 0.00 | 0.87 | 0.87 | 89 | 1018.6 |
| 20260503040055 | 56 | 0 | 0.0 | 3.0 | 0.00 | 0.87 | 0.87 | 89 | 1018.5 |
| 20260503034555 | 57 | 0 | 0.0 | 2.0 | 0.00 | 0.94 | 0.87 | 87 | 1018.5 |
| 20260503033052 | 57 | 0 | 0.0 | 2.0 | 0.00 | 0.94 | 0.87 | 86 | 1018.4 |
| 20260503031631 | 58 | 0 | 0.0 | 1.0 | 0.00 | 0.94 | 0.87 | 87 | 1018.3 |
| 20260503030055 | 58 | 0 | 0.0 | 1.0 | 0.00 | 0.94 | 0.87 | 85 | 1018.0 |
| 20260503024602 | 59 | 360 | 0.0 | 1.0 | 0.00 | 0.99 | 0.87 | 84 | 1017.9 |
| 20260503023052 | 59 | 0 | 0.0 | 1.0 | 0.00 | 0.99 | 0.87 | 79 | 1017.8 |
| 20260503021559 | 61 | 0 | 0.0 | 2.0 | 0.00 | 0.99 | 0.87 | 77 | 1017.6 |
| 20260503020057 | 62 | 0 | 0.0 | 1.0 | 0.00 | 0.99 | 0.87 | 66 | 1017.5 |
| 20260503014623 | 63 | 0 | 0.0 | 4.0 | 0.00 | 1.27 | 0.87 | 63 | 1017.2 |
| 20260503013053 | 64 | 360 | 0.0 | 3.0 | 0.00 | 1.27 | 0.87 | 63 | 1016.9 |